Weather past 2 weeks in Jamestown, Saint Helena

Now
64 °F

Partly sunny.


Feels Like: 64 °F
Forecast: N/A
Wind: 8 mph from Northeast

Location: Saint Helena Island

Current Time: Jul 30, 2014 at 3:30:02 PM

Latest Report: Jul 30, 2014 at 3:00 PM


Visibility: 28 mi

Pressure: 30.07 "Hg

Humidity: 75%

Dew point: 56 °F

Location of JamestownLocation

Historic Weather in Jamestown — Graph

°F

Jamestown temperature yesterday

Maximum temperature yesterday: 63 °F (at 1:00 PM)
Minimum temperature yesterday: 58 °F (at 5:00 AM)
Average temperature yesterday: 60 °F

Past Weeks' High & Low Weather Summary

 TemperatureHumidityPressure
High65 °F (Jul 30, 2:00 PM)100% (Jul 15, 11:00 PM)30.29 "Hg (Jul 15, 11:00 PM)
Low56 °F (Jul 16, 3:00 AM)65% (Jul 28, 4:00 AM)30.05 "Hg (Jul 29, 4:00 PM)
Average60 °F88%30.19 "Hg
* Reported Jul 15 2:00 PM — Jul 30 2:00 PM, Jamestown, Weather by CustomWeather, © 2014

Note: Actual official high and low records may vary slightly from our data, if they occured in-between our weather recording intervals... More about our weather records

Advertising

Jamestown weather history for previous 24 hours

 ConditionsComfort  
Time TempWeatherWind HumidityBarometerVisibility
2:00 PM
Jul 30
65 °FPartly sunny.6 mph73%30.08 "Hg16 mi
1:00 PM64 °FLow clouds.6 mph80%30.10 "Hg3 mi
12:00 PM61 °FLow clouds.9 mph94%30.13 "Hg3 mi
11:00 AM62 °FLow clouds.10 mph88%30.14 "Hg3 mi
10:00 AM62 °FOvercast.8 mph89%30.14 "Hg9 mi
9:00 AM61 °FOvercast.6 mph92%30.13 "Hg3 mi
8:00 AM59 °FCool.7 mph92%30.12 "HgN/A
7:00 AM59 °FCool.6 mph95%30.11 "HgN/A
5:00 AM60 °FCool.7 mph82%30.08 "HgN/A
4:00 AM59 °FCool.7 mph84%30.07 "HgN/A
3:00 AM59 °FCool.10 mph89%30.07 "HgN/A
2:00 AM60 °FCool.9 mph89%30.08 "HgN/A
1:00 AM59 °FCool.6 mph99%30.08 "HgN/A
11:00 PM
Jul 29
59 °FCool.8 mph95%30.09 "HgN/A
10:00 PM59 °FCool.8 mph91%30.10 "HgN/A
9:00 PM58 °FCool.12 mph93%30.09 "HgN/A
8:00 PM60 °FCool.12 mph89%30.08 "HgN/A
7:00 PM60 °FCool.10 mph94%30.07 "HgN/A
6:00 PM60 °FCool.8 mph97%30.06 "HgN/A
5:00 PM60 °FCool.14 mph92%30.06 "HgN/A
4:00 PM62 °FCool.13 mph82%30.05 "HgN/A
3:00 PM62 °FOvercast.13 mph82%30.05 "Hg12 mi
Weather by CustomWeather, © 2014

See weather overviewHow to use our weather pages